Flag for Germany Weather past 2 weeks in Nordkirchen, North Rhine-Westphalia, Germany

Now
54 °F

Clear.


Feels Like: 51 °F
Forecast: 50 / 62 °F
Wind: 8 mph from South

Location: Dortmund / Wickede

Current Time: May 28, 2015 at 12:40:01 AM

Latest Report: May 27, 2015 at 10:50 PM


Visibility: 10 mi

Pressure: 30.07 "Hg

Humidity: 54%

Dew point: 37 °F

Location of NordkirchenLocation

Historic Weather in Nordkirchen — Graph

°F

Nordkirchen temperature yesterday

Maximum temperature yesterday: 61 °F (at 5:50 PM)
Minimum temperature yesterday: 45 °F (at 5:20 AM)
Average temperature yesterday: 55 °F

Past Weeks' High & Low Weather Summary

 TemperatureHumidityPressure
High68 °F (May 22, 3:50 PM)94% (May 25, 11:50 AM)30.33 "Hg (May 25, 11:50 AM)
Low39 °F (May 14, 5:20 AM)32% (May 13, 3:50 PM)29.62 "Hg (May 18, 7:20 PM)
Average55 °F60%30.06 "Hg
* Reported May 12 10:20 PM — May 27 10:50 PM, Nordkirchen, Weather by CustomWeather, © 2015

Note: Actual official high and low records may vary slightly from our data, if they occured in-between our weather recording intervals... More about our weather records

Advertising

Nordkirchen weather history for previous 24 hours

 ConditionsComfort  
Time TempWeatherWind HumidityBarometerVisibility
10:50 PM
Wed, May 27
54 °FClear.8 mph54%30.07 "Hg10 mi
10:20 PM54 °FSunny.9 mph54%30.09 "Hg10 mi
9:50 PM54 °FSunny.8 mph54%30.09 "Hg10 mi
9:20 PM54 °FSunny.8 mph54%30.09 "Hg10 mi
8:50 PM55 °FRefreshingly cool.7 mph55%30.09 "HgN/A
8:20 PM59 °FSunny.8 mph45%30.12 "Hg10 mi
7:50 PM59 °FSunny.8 mph45%30.12 "Hg10 mi
7:20 PM61 °FSunny.8 mph42%30.12 "Hg10 mi
6:50 PM61 °FSunny.8 mph45%30.12 "Hg10 mi
6:20 PM61 °FSunny.9 mph42%30.15 "Hg10 mi
5:50 PM61 °FSunny.10 mph45%30.15 "Hg10 mi
5:20 PM59 °FPassing clouds.8 mph45%30.18 "HgN/A
4:50 PM59 °FSunny.8 mph45%30.18 "Hg10 mi
4:20 PM59 °FSunny.6 mph45%30.18 "Hg10 mi
3:50 PM59 °FSunny.7 mph45%30.18 "Hg10 mi
3:20 PM59 °FSunny.7 mph45%30.18 "Hg10 mi
2:50 PM59 °FSunny.5 mph42%30.21 "Hg10 mi
2:20 PM57 °FPassing clouds.5 mph48%30.21 "HgN/A
1:50 PM57 °FPassing clouds.7 mph48%30.21 "HgN/A
1:20 PM59 °FSunny.5 mph42%30.21 "Hg10 mi
12:50 PM57 °FSunny.5 mph44%30.24 "Hg10 mi
12:20 PM55 °FScattered clouds.5 mph47%30.24 "HgN/A
11:50 AM55 °FPartly sunny.5 mph44%30.24 "HgN/A
11:20 AM55 °FScattered clouds.8 mph47%30.24 "HgN/A
10:50 AM55 °FScattered clouds.9 mph51%30.24 "HgN/A
10:20 AM54 °FScattered clouds.7 mph58%30.24 "HgN/A
9:50 AM54 °FPassing clouds.8 mph58%30.24 "HgN/A
9:20 AM52 °FPassing clouds.7 mph62%30.24 "HgN/A
8:50 AM52 °FPassing clouds.5 mph67%30.24 "HgN/A
8:20 AM50 °FPassing clouds.5 mph71%30.24 "HgN/A
7:50 AM48 °FSunny.5 mph76%30.24 "Hg10 mi
7:20 AM48 °FPassing clouds.5 mph76%30.24 "HgN/A
6:50 AM46 °FSunny.5 mph82%30.24 "Hg10 mi
6:20 AM46 °FClear.5 mph82%30.24 "Hg10 mi
5:20 AM45 °FPassing clouds.7 mph87%30.24 "HgN/A
Weather by CustomWeather, © 2015

See weather overviewHow to use our weather pages